Weather History for Polokwane, South Africa

Change the Weather History Date:

Friday, May 3, 2013

  Actual Average Record
Temperature  
Mean Temperature 63 °F -  
Max Temperature 80 °F - - ()
Min Temperature 46 °F - - ()
Degree Days  
Heating Degree Days 2    
Growing Degree Days 13 (Base 50)    
Moisture  
Dew Point 45 °F    
Average Humidity 61    
Maximum Humidity 93    
Minimum Humidity 23    
Precipitation  
Precipitation 0.00 in - - ()
Sea Level Pressure  
Sea Level Pressure 30.19 in    
Wind  
Wind Speed 3 mph ()    
Max Wind Speed 7 mph    
Max Gust Speed -    
Visibility 5.2 miles    
Events      
T = Trace of Precipitation, MM = Missing Value Source: Averaged Metar Reports

Daily Weather History Graph

Daily Weather History Graph

Search for Another Location

Airport:

Trip Planner

Search our weather history database for the weather conditions in past years. The results will help you decide how hot, cold, wet, or windy it might be!

Date:

Astronomy

May. 03, 2013 Rise Set
Actual Time 6:23 AM SAST 5:33 PM SAST
Civil Twilight 6:00 AM SAST 5:57 PM SAST
Nautical Twilight 5:33 AM SAST 6:24 PM SAST
Astronomical Twilight 5:06 AM SAST 6:51 PM SAST
Moon 12:17 AM SAST (5/3) 1:15 PM SAST (5/3)
Length of Visible Light 11h 57m
Length of Day
11h 10m
Last Quarter, 40% of the Moon is Illuminated
May 3
Last Quarter
May 10
New
May 18
First Quarter
May 25
Full
May 31
Last Quarter

Hourly Weather History & Observations

Time (SAST) Temp. Windchill Dew Point Humidity Pressure Visibility Wind Dir Wind Speed Gust Speed Precip Events Conditions
12:00 AM 51.8 °F - 44.6 °F 76% 30.24 in - SSW 2.3 mph - N/A   Unknown
1:00 AM 50.0 °F - 46.4 °F 87% 30.24 in - South 4.6 mph - N/A   Unknown
2:00 AM 50.0 °F - 44.6 °F 82% 30.24 in - South 3.5 mph - N/A   Unknown
3:00 AM 48.2 °F - 44.6 °F 87% 30.21 in - South 1.2 mph - N/A   Unknown
4:00 AM 48.2 °F - 42.8 °F 82% 30.21 in - SSW 2.3 mph - N/A   Unknown
5:00 AM 46.4 °F 44.3 °F 42.8 °F 87% 30.21 in - SSW 4.6 mph - N/A   Clear
6:00 AM 46.4 °F - 44.6 °F 93% 30.21 in 5.0 mi SSW 2.3 mph - N/A   Unknown
7:00 AM 46.4 °F 44.3 °F 41.0 °F 81% 30.24 in 5.0 mi SSW 4.6 mph - N/A   Unknown
8:00 AM 51.8 °F - 46.4 °F 82% 30.24 in 5.0 mi WSW 2.3 mph - N/A   Unknown
8:37 AM 55.4 °F - 48.2 °F 77% 30.24 in 5.0 mi SW 2.3 mph - N/A   Unknown
9:00 AM 59.0 °F - 48.2 °F 67% 30.24 in - SW 1.2 mph - N/A   Clear
10:00 AM 66.2 °F - 46.4 °F 49% 30.21 in - West 3.5 mph - N/A   Clear
11:00 AM 71.6 °F - 44.6 °F 38% 30.21 in - SSW 2.3 mph - N/A   Clear
12:00 PM 77.0 °F - 44.6 °F 32% 30.18 in 6.2 mi North 2.3 mph - N/A   Partly Cloudy
1:00 PM 77.0 °F - 37.4 °F 24% 30.15 in - SSW 4.6 mph - N/A   Clear
2:00 PM 80.6 °F - 41.0 °F 24% 30.12 in - East 2.3 mph - N/A   Clear
3:00 PM 80.6 °F - 39.2 °F 23% 30.12 in - SSE 2.3 mph - N/A   Clear
4:00 PM 80.6 °F - 39.2 °F 23% 30.12 in - North 3.5 mph - N/A   Clear
5:00 PM 78.8 °F - 44.6 °F 30% 30.12 in - North 6.9 mph - N/A   Clear
6:00 PM 73.4 °F - 46.4 °F 38% 30.12 in - North 5.8 mph - N/A   Clear
7:00 PM 68.0 °F - 48.2 °F 49% 30.15 in - NE 3.5 mph - N/A   Clear
8:00 PM 62.6 °F - 50.0 °F 63% 30.18 in - East 4.6 mph - N/A   Clear
9:00 PM 59.0 °F - 50.0 °F 72% 30.18 in - East 4.6 mph - N/A   Unknown
10:00 PM 55.4 °F - 48.2 °F 77% 30.18 in - SW 2.3 mph - N/A   Unknown
11:00 PM 55.4 °F - 46.4 °F 72% 30.18 in - South 2.3 mph - N/A   Unknown